Weather History for Las Cruces, NM

Change the Weather History Date:

Sunday, October 7, 2012

  Actual Average Record
Temperature  
Mean Temperature 60 °F -  
Max Temperature 72 °F 77 °F 84 °F (1996)
Min Temperature 49 °F 54 °F 38 °F (2013)
Degree Days  
Heating Degree Days 4    
Growing Degree Days 10 (Base 50)    
Moisture  
Dew Point 40 °F    
Average Humidity 49    
Maximum Humidity 68    
Minimum Humidity 25    
Precipitation  
Precipitation 0.00 in - - ()
Sea Level Pressure  
Sea Level Pressure 30.09 in    
Wind  
Wind Speed 11 mph (SSE)    
Max Wind Speed 17 mph    
Max Gust Speed 24 mph    
Visibility 10 miles    
Events      
Averages and records for this station are not official NWS values.
T = Trace of Precipitation, MM = Missing Value Source: NWS Daily Summary

Daily Weather History Graph

Daily Weather History Graph

Search for Another Location

Airport:

Trip Planner

Search our weather history database for the weather conditions in past years. The results will help you decide how hot, cold, wet, or windy it might be!

Date:

Astronomy

Oct. 07, 2012 Rise Set
Actual Time 7:06 AM MDT 6:44 PM MDT
Civil Twilight 6:41 AM MDT 7:08 PM MDT
Nautical Twilight 6:13 AM MDT 7:36 PM MDT
Astronomical Twilight 5:44 AM MDT 8:05 PM MDT
Moon No Moon Rise 1:31 PM MDT (10/7)
Length of Visible Light 12h 27m
Length of Day
11h 37m
Waning Gibbous, 55% of the Moon is Illuminated
Oct 7
Waning Gibbous
Oct 8
Last Quarter
Oct 15
New
Oct 21
First Quarter
Oct 29
Full

Hourly Weather History & Observations

Time (MDT) Temp. Dew Point Humidity Pressure Visibility Wind Dir Wind Speed Gust Speed Precip Events Conditions
12:15 AM 66.0 °F 28.6 °F 25% 30.03 in 10.0 mi SSE 10.4 mph - N/A   Clear
12:35 AM 63.0 °F 39.6 °F 42% 30.03 in 10.0 mi SE 11.5 mph - N/A   Clear
1:15 AM 60.4 °F 43.0 °F 53% 30.05 in 10.0 mi SE 10.4 mph 17.3 mph N/A   Clear
1:35 AM 59.9 °F 43.7 °F 55% 30.05 in 10.0 mi SSE 13.8 mph 17.3 mph N/A   Clear
1:55 AM 59.0 °F 43.9 °F 57% 30.05 in 10.0 mi SSE 13.8 mph 19.6 mph N/A   Clear
2:15 AM 58.1 °F 44.2 °F 60% 30.06 in 10.0 mi SE 13.8 mph 19.6 mph N/A   Clear
2:35 AM 57.6 °F 44.2 °F 61% 30.06 in 10.0 mi SE 16.1 mph - N/A   Clear
2:55 AM 57.2 °F 43.9 °F 61% 30.07 in 10.0 mi SE 15.0 mph - N/A   Clear
3:15 AM 56.5 °F 44.1 °F 63% 30.07 in 10.0 mi SE 13.8 mph 23.0 mph N/A   Clear
3:35 AM 55.9 °F 44.2 °F 65% 30.07 in 10.0 mi SSE 15.0 mph 20.7 mph N/A   Clear
3:55 AM 55.6 °F 44.6 °F 67% 30.07 in 10.0 mi SSE 17.3 mph 20.7 mph N/A   Clear
4:15 AM 54.5 °F 44.1 °F 68% 30.07 in 10.0 mi SE 16.1 mph 21.9 mph N/A   Clear
4:35 AM 53.4 °F 42.8 °F 67% 30.07 in 10.0 mi SE 15.0 mph 23.0 mph N/A   Clear
4:55 AM 52.3 °F 41.7 °F 67% 30.08 in 10.0 mi SE 17.3 mph 24.2 mph N/A   Clear
5:15 AM 51.4 °F 41.2 °F 68% 30.08 in 10.0 mi SE 13.8 mph 21.9 mph N/A   Clear
5:35 AM 51.1 °F 41.0 °F 68% 30.09 in 10.0 mi SSE 13.8 mph 20.7 mph N/A   Clear
5:55 AM 50.7 °F 40.1 °F 67% 30.09 in 10.0 mi SSE 13.8 mph 19.6 mph N/A   Clear
6:15 AM 50.0 °F 38.8 °F 66% 30.10 in 10.0 mi SE 13.8 mph - N/A   Clear
6:35 AM 49.6 °F 38.5 °F 65% 30.11 in 10.0 mi SE 10.4 mph - N/A   Clear
6:55 AM 49.3 °F 38.3 °F 66% 30.12 in 10.0 mi SE 8.1 mph - N/A   Clear
7:15 AM 49.1 °F 37.8 °F 65% 30.12 in 10.0 mi SSE 10.4 mph - N/A   Clear
7:35 AM 49.1 °F 37.6 °F 64% 30.12 in 10.0 mi SSE 8.1 mph - N/A   Clear
7:55 AM 49.6 °F 37.8 °F 64% 30.13 in 10.0 mi SSE 8.1 mph - N/A   Clear
8:15 AM 50.5 °F 38.3 °F 63% 30.14 in 10.0 mi SE 9.2 mph - N/A   Clear
8:35 AM 50.7 °F 38.3 °F 62% 30.15 in 10.0 mi SE 12.7 mph 16.1 mph N/A   Clear
8:55 AM 51.4 °F 38.7 °F 62% 30.16 in 10.0 mi SE 9.2 mph 16.1 mph N/A   Clear
9:15 AM 52.5 °F 39.0 °F 60% 30.17 in 10.0 mi SE 15.0 mph - N/A   Clear
9:35 AM 53.1 °F 39.4 °F 60% 30.17 in 10.0 mi SE 11.5 mph - N/A   Clear
9:55 AM 53.8 °F 39.6 °F 59% 30.18 in 10.0 mi SE 11.5 mph 20.7 mph N/A   Clear
10:15 AM 55.0 °F 39.7 °F 56% 30.18 in 10.0 mi SE 15.0 mph 21.9 mph N/A   Clear
10:35 AM 56.3 °F 40.1 °F 55% 30.18 in 10.0 mi SE 16.1 mph 23.0 mph N/A   Clear
10:55 AM 57.9 °F 40.5 °F 52% 30.17 in 10.0 mi SE 13.8 mph - N/A   Clear
11:15 AM 58.1 °F 40.5 °F 52% 30.16 in 10.0 mi SSE 13.8 mph 18.4 mph N/A   Clear
11:35 AM 59.2 °F 40.5 °F 50% 30.16 in 10.0 mi SE 10.4 mph 19.6 mph N/A   Clear
11:55 AM 60.6 °F 40.5 °F 47% 30.15 in 10.0 mi SE 13.8 mph 19.6 mph N/A   Clear
12:15 PM 61.9 °F 40.5 °F 45% 30.15 in 10.0 mi SE 10.4 mph 18.4 mph N/A   Clear
12:35 PM 61.7 °F 40.6 °F 46% 30.14 in 10.0 mi ESE 10.4 mph - N/A   Clear
12:55 PM 64.6 °F 41.0 °F 42% 30.13 in 10.0 mi SSE 11.5 mph - N/A   Clear
1:15 PM 65.8 °F 40.3 °F 39% 30.12 in 10.0 mi ESE 5.8 mph - N/A   Clear
1:35 PM 65.7 °F 40.3 °F 39% 30.11 in 10.0 mi SSE 6.9 mph - N/A   Clear
1:55 PM 67.5 °F 39.6 °F 36% 30.10 in 10.0 mi SE 8.1 mph - N/A   Clear
2:15 PM 68.0 °F 39.4 °F 35% 30.09 in 10.0 mi South 5.8 mph - N/A   Clear
2:35 PM 68.0 °F 39.4 °F 35% 30.08 in 10.0 mi South 4.6 mph - N/A   Clear
2:55 PM 69.1 °F 39.9 °F 35% 30.08 in 10.0 mi South 5.8 mph - N/A   Clear
3:15 PM 69.6 °F 39.9 °F 34% 30.07 in 10.0 mi SSE 9.2 mph - N/A   Clear
3:35 PM 70.7 °F 39.9 °F 33% 30.07 in 10.0 mi SSE 8.1 mph - N/A   Clear
3:55 PM 70.9 °F 39.9 °F 32% 30.06 in 10.0 mi South 9.2 mph - N/A   Clear
4:15 PM 71.2 °F 40.3 °F 33% 30.05 in 10.0 mi SE 8.1 mph - N/A   Clear
4:35 PM 72.1 °F 39.6 °F 31% 30.05 in 10.0 mi SE 8.1 mph - N/A   Clear
4:55 PM 72.7 °F 39.2 °F 30% 30.04 in 10.0 mi South 6.9 mph - N/A   Clear
5:15 PM 72.7 °F 39.0 °F 29% 30.04 in 10.0 mi SE 6.9 mph - N/A   Clear
5:35 PM 72.1 °F 39.0 °F 30% 30.04 in 10.0 mi South 4.6 mph - N/A   Clear
6:15 PM 71.1 °F 38.5 °F 31% 30.04 in 10.0 mi South 6.9 mph - N/A   Clear
6:35 PM 68.7 °F 40.8 °F 36% 30.04 in 10.0 mi ESE 6.9 mph - N/A   Clear
6:55 PM 67.1 °F 41.0 °F 39% 30.05 in 10.0 mi ESE 6.9 mph - N/A   Clear
7:15 PM 65.7 °F 40.5 °F 40% 30.05 in 10.0 mi SE 5.8 mph - N/A   Clear
7:35 PM 64.4 °F 40.1 °F 41% 30.05 in 10.0 mi SE 4.6 mph - N/A   Clear
7:55 PM 63.5 °F 40.1 °F 42% 30.06 in 10.0 mi SE 6.9 mph - N/A   Clear
8:15 PM 63.5 °F 40.6 °F 43% 30.07 in 10.0 mi SE 6.9 mph - N/A   Clear
8:35 PM 62.6 °F 40.5 °F 44% 30.07 in 10.0 mi SE 5.8 mph - N/A   Clear
8:55 PM 62.4 °F 40.5 °F 44% 30.07 in 10.0 mi SSE 6.9 mph - N/A   Clear
9:15 PM 62.6 °F 40.5 °F 44% 30.08 in 10.0 mi SSE 8.1 mph - N/A   Clear
9:35 PM 62.1 °F 40.5 °F 45% 30.08 in 10.0 mi South 9.2 mph - N/A   Clear
9:55 PM 61.9 °F 40.3 °F 45% 30.08 in 10.0 mi South 8.1 mph - N/A   Clear
10:15 PM 61.7 °F 40.5 °F 46% 30.09 in 10.0 mi South 8.1 mph - N/A   Clear
10:35 PM 61.3 °F 40.1 °F 46% 30.09 in 10.0 mi South 8.1 mph - N/A   Clear
10:55 PM 61.2 °F 40.1 °F 46% 30.09 in 10.0 mi South 9.2 mph - N/A   Clear
11:15 PM 59.9 °F 40.1 °F 48% 30.09 in 10.0 mi SSE 9.2 mph - N/A   Clear
11:35 PM 59.2 °F 40.1 °F 49% 30.09 in 10.0 mi South 8.1 mph - N/A   Clear
11:55 PM 59.2 °F 40.1 °F 49% 30.09 in 10.0 mi South 6.9 mph - N/A   Clear